Other Surface Observations
Issued by NWS Charleston, SC

Home | Current Version | Previous Version | Text Only | Print | Product List | Glossary On
Versions: 1 2 3 4 5 6 7 8 9 10 11 12 13 14 15 16 17 18 19 20 21 22 23 24 25 26 27 28 29 30 31 32 33 34 35 36 37 38 39 40 41 42 43 44 45 46 47 48 49 50
000
SXUS52 KCHS 041327
OSOCHS

MARINE OBSERVATIONS
NATIONAL WEATHER SERVICE CHARLESTON SC
900 AM EDT SAT JUL 04 2015

...DOWNTOWN CHARLESTON AND HARBOR...

CITY           SKY/WX    TMP DP  RH WIND       PRES   REMARKS
WATERFRONT PRK   N/A     79  72  79 VRB2      30.05R
FORT JOHNSON   NOT AVBL

...LAKE MOULTRIE...

CITY           SKY/WX    TMP DP  RH WIND       PRES   REMARKS
PINOPOLIS      NOT AVBL

...LAKE AND SUPPLEMENTAL COASTAL OBSERVATIONS...

STATION/POSITION TIME  TEMP    WIND        PRES    WAVE   SWELL
                       AIR SEA DIR/SP/G            HT/PER HT/PER/DIR
                 (UTC) (F)     (DEG/KT/KT) (MB)    (FT/S) (FT/S/D)
FORT PULASKI     1300   80 83   CALM  /  1 1019.2S
SAPELO ISLAND    1300   80     240/  8     1019.0S
UPR LAKE MARION  NOT AVBL
WINYAH BAY       1200   74     260/  5     1017.0R
LAKE MURRAY      1300   74     230/  6/  9 1016.3R
ACE BASIN NERRS  NOT AVBL


...C-MAN AND BUOY OBSERVATIONS...

STATION/POSITION TIME  TEMP    WIND        PRES    WAVE   SWELL
                       AIR SEA DIR/SP/G            HT/PER HT/PER/DIR
                 (UTC) (F)     (DEG/KT/KT) (MB)    (FT/S) (FT/S/D)
BUOY 41004       1250   81 81  240/ 16/ 17 1017.7R   5/ 6   2/ 9
BUOY 41008       1250   79 78  240/ 10/ 12 1019.3R   3/ 8   3/110/ 8
FOLLY BEACH CMAN 1300   81     270/  5/  8 1018.5R
CAPERS NS BUOY   1208   78     360/  6/ 10 1018.3R
FRIPP NS BUOY    1200   81     290/ 14/ 16 1018.4R
5E ST. MARYS GA  1221      77                N/A     2/ 8


STATION/POSITION TIME  TEMP    WIND        PRES    WAVE   SWELL
                       AIR SEA DIR/SP/G            HT/PER HT/PER/DIR
                 (UTC) (F)     (DEG/KT/KT) (MB)    (FT/S) (FT/S/D)
FRYING PAN BUOY  1250   80 78  250/ 17/ 21 1018.0R   5/ 6   2/190/14
BUOY 41025       1250   80 81  250/ 21/ 25 1014.8R   8/ 7   2/180/15
CAPE LOOKOUT NC  1300   81     240/ 12/ 15 1015.4S
BUOY 41002       1250   81 80  230/ 12/ 14 1020.9R   6/ 6   3/260/ 7
BUOY 41010       1220   83 84  180/  8/  8 1020.7R
ST AUGUSTINE FL  1300   81 72  240/  7/  8 1021.1R

$$



USA.gov is the U.S. government's official web portal to all federal, state and local government web resources and services.